[Iaude] MPEC O94: 2024 OO [a=0.92,e=0.39,i=1.6,H=25.5]
    mpec at cfa.harvard.edu 
    mpec at cfa.harvard.edu
       
    Mon Jul 29 21:11:25 EDT 2024
    
    
  
M.P.E.C. 2024-O94                                 Issued 2024 July 30, 01:10 UT
     The Minor Planet Electronic Circulars contain information on unusual
         minor planets, routine data on comets and natural satellites,
         and occasional editorial announcements.  They are published
    on behalf of Division F of the International Astronomical Union by the
          Minor Planet Center, Smithsonian Astrophysical Observatory,
                          Cambridge, MA 02138, U.S.A.
			  
             Prepared using the Tamkin Foundation Computer Network
                              MPC at CFA.HARVARD.EDU
            URL https://www.minorplanetcenter.net/    ISSN 1523-6714
                                    2024 OO                                     
Observations:
     K24O00O  C2024 07 26.58585622 17 44.480+08 14 57.70         20.04GVEO094F51
     K24O00O  C2024 07 28.49894122 29 33.268+15 30 17.06         19.63GVEO094F52
     K24O00O  C2024 07 28.50999122 29 37.684+15 33 45.48         19.25GVEO094F52
     K24O00O*KC2024 07 28.94841 22 33 53.28 +18 02 22.4          19.2 GXEO094L51
     K24O00O KC2024 07 28.94944 22 33 53.82 +18 02 44.9          19.5 GXEO094L51
     K24O00O KC2024 07 28.95054 22 33 54.40 +18 03 10.3          18.9 GXEO094L51
     K24O00O KC2024 07 28.98611122 34 21.785+18 15 51.95         18.8 GVEO094J95
     K24O00O KC2024 07 28.98743222 34 22.582+18 16 22.33         19.1 GVEO094J95
     K24O00O KC2024 07 28.98877822 34 23.333+18 16 53.36         19.2 GVEO094J95
     K24O00O KC2024 07 28.99010122 34 24.118+18 17 23.60         19.5 GVEO094J95
     K24O00O KB2024 07 29.00729522 34 34.83 +18 24 37.0          19.3 GXEO094I93
     K24O00O KB2024 07 29.01038122 34 36.57 +18 25 48.3          19.4 GXEO094I93
     K24O00O KB2024 07 29.01345422 34 38.32 +18 27 00.5          19.2 GXEO094I93
     K24O00O KB2024 07 29.06311922 35 06.86 +18 46 32.3          18.8 GXEO094958
     K24O00O KB2024 07 29.06753922 35 09.39 +18 48 15.9          19.4 GXEO094958
     K24O00O KB2024 07 29.07191722 35 11.81 +18 50 00.5          18.9 GXEO094958
     K24O00O KC2024 07 29.25443222 37 28.27 +20 05 06.6          19.2 GVEO094H21
     K24O00O KC2024 07 29.25636222 37 29.50 +20 05 56.5          19.3 GVEO094H21
     K24O00O KC2024 07 29.25829122 37 30.74 +20 06 46.5          19.5 GVEO094H21
     K24O00O KC2024 07 29.26022022 37 31.99 +20 07 36.4          19.6 GVEO094H21
     K24O00O KC2024 07 29.26214922 37 33.22 +20 08 26.4          19.3 GVEO094H21
     K24O00O KC2024 07 29.26407622 37 34.44 +20 09 16.4          19.5 GVEO094H21
     K24O00O KC2024 07 29.43230 22 39 37.658+21 23 58.81         18.3 GVEO094U52
     K24O00O KC2024 07 29.43722 22 39 41.066+21 26 16.12         18.0 GVEO094U52
     K24O00O KC2024 07 29.44214 22 39 44.501+21 28 31.37         19.2 GVEO094U52
     K24O00O  C2024 07 29.45158222 40 04.412+21 34 50.51         19.36wXEO094F52
     K24O00O  C2024 07 29.46204922 40 11.644+21 39 45.69         19.07wXEO094F52
     K24O00O KB2024 07 29.56064222 41 44.318+22 24 40.20         19.0 VZEO094Q06
     K24O00O KB2024 07 29.56591022 41 48.519+22 27 17.92         20.7 VZEO094Q06
     K24O00O KB2024 07 29.57117822 41 52.738+22 29 55.61         20.0 VZEO094Q06
     K24O00O KC2024 07 29.86809 22 46 39.35 +25 04 17.4          19.2 VqEO094L04
     K24O00O KC2024 07 29.87148 22 46 42.76 +25 06 12.9          19.4 VqEO094L04
     K24O00O KC2024 07 29.87885 22 46 50.12 +25 10 04.6          18.9 GXEO094G02
     K24O00O KC2024 07 29.88350 22 46 54.77 +25 12 42.4          18.7 GXEO094G02
     K24O00O KB2024 07 29.88521 22 46 56.20 +25 14 14.2          19.2 VZEO094M45
     K24O00O KB2024 07 29.88617 22 46 57.12 +25 14 47.5          19.4 VZEO094M45
     K24O00O KB2024 07 29.88706 22 46 58.02 +25 15 17.7          19.1 VZEO094M45
     K24O00O KC2024 07 29.88815 22 46 59.49 +25 15 24.4          18.8 GXEO094G02
     K24O00O KC2024 07 29.90942522 47 24.11 +25 27 47.0          19.2 GVEO094203
     K24O00O KC2024 07 29.90977822 47 19.44 +25 28 08.0          19.2 GXEO094L18
     K24O00O KC2024 07 29.91353222 47 25.68 +25 29 49.3          19.0 GVEO094G34
     K24O00O KC2024 07 29.91897222 47 31.26 +25 32 58.5          19.2 GVEO094G34
     K24O00O KB2024 07 29.91906 22 47 31.714+25 32 49.16         20.1 GXEO094L38
     K24O00O KC2024 07 29.91928322 47 28.92 +25 33 37.9          19.4 GXEO094L18
     K24O00O KC2024 07 29.92333522 47 38.28 +25 35 53.8          19.2 GVEO094203
     K24O00O KB2024 07 29.92475 22 47 37.546+25 36 07.60         18.2 GXEO094L38
     K24O00O KC2024 07 29.92875822 47 38.32 +25 39 09.2          19.5 GXEO094L18
     K24O00O KB2024 07 29.93537 22 47 49.34 +25 42 28.3          18.5 GXEO094K35
     K24O00O KB2024 07 29.93882 22 47 52.87 +25 44 30.3          18.9 GXEO094K35
     K24O00O KB2024 07 29.94225 22 47 56.42 +25 46 30.8          19.4 GXEO094K35
     K24O00O KC2024 07 29.94376022 47 58.96 +25 48 04.5          18.5 GVEO094104
     K24O00O KC2024 07 29.94599822 48 01.23 +25 49 24.1          18.3 GVEO094104
     K24O00O KC2024 07 29.94879622 48 04.12 +25 51 03.2          19.0 GVEO094104
     K24O00O KB2024 07 29.94913 22 48 03.50 +25 50 34.6          18.9 GXEO094K35
     K24O00O KB2024 07 29.95256 22 48 07.03 +25 52 36.3          18.5 GXEO094K35
     K24O00O KC2024 07 30.01978422 49 15.31 +26 33 24.4          18.7 G EO094L01
     K24O00O KC2024 07 30.02126922 49 16.91 +26 34 18.7          18.6 G EO094L01
     K24O00O KC2024 07 30.02275722 49 18.41 +26 35 12.4          18.8 G EO094L01
     K24O00O KC2024 07 30.02424622 49 19.94 +26 36 06.5          18.9 G EO094L01
     K24O00O KC2024 07 30.02573522 49 21.54 +26 37 00.6          19.0 G EO094L01
     K24O00O KC2024 07 30.02760122 49 23.45 +26 38 08.5          19.0 G EO094L01
Observer details:
104 San Marcello Pistoiese.  Observers P. Bacci, M. Maestripieri.  Measurers
    P. Bacci, L. Tesi, G. Fagioli.  0.60-m F4 Reflector + CCD.
203 GiaGa Observatory.  Observer G. Galli.  0.36-m f/5.76 Schmidt-Cassegrain +
    CCD.
958 Observatoire de Dax.  Observer P. Dupouy.  0.50-m f/4.5 Reflector + CMO.
F51 Pan-STARRS 1, Haleakala.  Observers J. Herman, T. Lowe, P. Minguez, A.
    Schultz, I. Smith.  Measurers K. Chambers, T. de Boer, J. Fairlamb, H.
    Gao, M. Huber, C.-C. Lin, E. Magnier, Y. Ramanjooloo, R. Wainscoat, R.
    Weryk.  1.8-m Ritchey-Chretien + CCD.
F52 Pan-STARRS 2, Haleakala.  Observers J. Herman, T. Lowe, P. Minguez, A.
    Schultz, I. Smith.  Measurers K. Chambers, T. de Boer, J. Fairlamb, H.
    Gao, M. Huber, C.-C. Lin, E. Magnier, Y. Ramanjooloo, R. Wainscoat, R.
    Weryk.  1.8-m Ritchey-Chretien + CCD.
G02 KYSUCE Observatory, Kysucke Nove Mesto.  Observer M. Urbanik.  0.40-m
    f/6.8 Corrected Dall-Kirkham + CCD.
G34 Oberfrauendorf.  Observer T. Felber.  0.35-m f/6.3 Schmidt-Cassegrain+CMO
    + CMO.
H21 Astronomical Research Observatory, Westfield.  Observer R. Holmes.
    Measurers T. Linder, R. Holmes.  0.76-m f/3.0 astrograph + CCD.
I93 St Pardon de Conques.  Observer F. Losse.  0.40-m f/3.7 reflector + CMO.
J95 Great Shefford.  Observer P. Birtwhistle.  0.41-m f/6.3 Schmidt-Cassegrain
    + CCD.
K35 Huenfelden.  Observer P. Remmel.  0.36-m f/1.9 reflector + CMO.
L01 Visnjan Observatory, Tican.  Observers K. Korlevic, L. Poropat.  Measurer
    K. Korlevic.  1.0-m f/2.9 reflector + CCD.
L04 ROASTERR-1 Observatory, Cluj-Napoca.  Observer L. Hudin.  0.30-m f/5
    reflector + CCD.
L18 QOS Observatory, Zalistsi.  Observer O. V. Kravchenko.  Measurer A. M.
    Kozhukhov.  0.50-m f/3.8 reflector + CCD.
L38 Gartensternwarte Schafsweide, Sehlde.  Observer A. Opitz.  0.35-m f/5.2
    Newton + CMO.
L51 MARGO, Nauchnyi.  Observer G. Borisov.  0.50-m f/1.9 reflector + CCD.
M45 Starhopper Observatory, Sfantu Gheorghe.  Observer F. Ursache.  0.41-m
    f/7.5 reflector + CMO.
Q06 Tarui Observatory, Tarui.  Observer H. Watanabe.  0.35-m f/1.9 Schmidt-
    Cassegrain + CMO.
U52 Shasta Valley Observatory, Grenada.  Observers J. E. Rogers, B. Haeusler.
    Measurers J. E. Rogers, D. Parrott.  0.30-m f/5.2 Helin Telescope + CCD.
Orbital elements:
2024 OO                                                  Earth MOID = 0.0101 AU
Epoch 2024 Oct. 17.0 TT = JDT 2460600.5                 Veres                   
M   2.71664              (2000.0)            P               Q                  
n   1.11054394     Peri.  284.18164     +0.25156607     -0.96775092             
a   0.9235184      Node   151.23786     +0.89817550     +0.22837909             
e   0.3937374      Incl.    1.56489     +0.36054860     +0.10630685             
P   0.89           H   25.54          G   0.15           U   6                  
Residuals in seconds of arc
240726 F51  0.0   0.2+    240729 H21  0.1-  0.3+    240729 L38  0.1-  0.1+
240728 F52  0.1-  0.2-    240729 U52  0.3+  0.1+    240729 L18  0.4+  0.5-
240728 F52  0.2-  0.7-    240729 U52 (0.1-  1.3+)   240729 203  0.0   0.0
240728 L51  0.4+  0.7+    240729 U52  0.2-  0.2+    240729 L38  0.1-  0.3-
240728 L51  0.1+  0.1-    240729 F52 (0.3+  1.1+)   240729 L18  0.1-  0.0
240728 L51  0.1-  0.4+    240729 F52  0.1-  0.0     240729 K35  0.0   0.2-
240728 J95  0.1-  0.2-    240729 Q06  0.9+  0.3+    240729 K35  0.2-  0.3+
240728 J95  0.4+  0.3-    240729 Q06  0.4+  0.6+    240729 K35  0.1+  0.2-
240728 J95  0.1-  0.4-    240729 Q06  0.3+  0.6+    240729 104  0.5-  0.6-
240728 J95  0.2+  0.7-    240729 L04  0.1+  0.5+    240729 104  0.5-  0.2-
240729 I93  0.2+  0.4+    240729 L04  0.7+  0.1-    240729 104  0.2+  0.2-
240729 I93  0.0   0.1-    240729 G02  0.6-  0.1+    240729 K35  0.1+  0.4+
240729 I93  0.1+  0.5+    240729 G02 (0.9-  2.1-)   240729 K35  0.1+  0.6+
240729 958  0.1+  1.1+    240729 M45  0.8+  0.5+    240730 L01  1.1-  0.4-
240729 958  0.3+  0.1-    240729 M45  0.4+  0.7+    240730 L01  0.2-  0.0
240729 958  0.9-  0.7+    240729 M45  0.7+  0.2+    240730 L01  0.7-  0.3-
240729 H21  0.1+  0.4+    240729 G02  0.3-  0.3-    240730 L01  0.9-  0.3-
240729 H21  0.0   0.3+    240729 203  0.0   0.1+    240730 L01  0.1-  0.3-
240729 H21  0.0   0.4+    240729 L18  0.0   0.3+    240730 L01  0.4-  0.3-
240729 H21  0.2+  0.3+    240729 G34  0.0   0.6+
240729 H21  0.1+  0.3+    240729 G34  0.6+  0.0
Ephemeris:
2024 OO                  a,e,i = 0.92, 0.39, 2                   q = 0.5599
Date    TT    R. A. (2000) Decl.     Delta      r    Elong.  Phase     V
2024 06 30    21 44 57.3 -07 31 15   0.2236  1.1785   132.2    39.7    24.2
...
2024 07 15    21 57 37.7 -03 34 27   0.1176  1.1111   141.6    34.6    22.6
...
2024 07 23    22 07 34.2 +01 50 30   0.06444 1.0686   143.8    34.2    21.1
...
2024 07 29    22 34 21.5 +18 24 02   0.02696 1.0337   132.5    46.4    19.5
2024 07 30    22 48 46.5 +26 23 20   0.02149 1.0277   124.9    54.1    19.2
2024 07 31    23 16 56.6 +39 00 37   0.01681 1.0216   112.2    67.0    19.1
...
2024 08 06    09 11 53.5 +31 26 48   0.03190 0.9835    14.8   164.7    31.0
...
2024 08 14    09 37 47.6 +17 15 45   0.08377 0.9293     3.0   176.8
...
2024 08 29    09 45 46.6 +12 35 30   0.1956  0.8191    11.4   165.9
M. P. C. Staff               (C) Copyright 2024 MPC           M.P.E.C. 2024-O94
    
    
More information about the Iaude
mailing list